Location: Lourdes
(43.1000°N, 0.0500°W)
Time: 05:21:45
(UTC+00:00)

Cosmos 1328 Rocket - Pass Details

Date: 30 November 2020
Orbit: 601 x 627 km, 82.5° (Epoch: 24 January)

Event Time Altitude Azimuth Distance (km) Brightness Sun altitude
Rises 17:16:59 0° 175° (S) 2,840 7.2 -9.1°
Reaches altitude 10° 17:19:13 10° 170° (S) 1,944 6.3 -9.5°
Maximum altitude 17:23:23 53° 94° (E) 751 3.7 -10.2°
Drops below altitude 10° 17:27:38 10° 18° (NNE) 1,972 5.8 -11.0°
Sets 17:29:54 0° 13° (NNE) 2,885 6.7 -11.4°
